Satellite: NOAA-17
Catalog number: 27453
Epoch time:      12095.82866294
Element set:    0659
Inclination:      098.3439 deg
RA of node:       126.5487 deg
Eccentricity:    0.0012008
Arg of perigee:   016.8908 deg
Mean anomaly:     343.2661 deg
Mean motion:   14.24412180 rev/day
Decay rate:       2.49e-06 rev/day^2
Epoch rev:           50831
Checksum:              317

Satellite: NOAA-18
Catalog number: 28654
Epoch time:      12095.91905419
Element set:    0135
Inclination:      099.0385 deg
RA of node:       053.4256 deg
Eccentricity:    0.0014474
Arg of perigee:   004.5081 deg
Mean anomaly:     355.6207 deg
Mean motion:   14.11629299 rev/day
Decay rate:       3.12e-06 rev/day^2
Epoch rev:           35422
Checksum:              299

Satellite: NOAA-19
Catalog number: 33591
Epoch time:      12095.83957690
Element set:    0326
Inclination:      098.8588 deg
RA of node:       036.5570 deg
Eccentricity:    0.0013311
Arg of perigee:   226.9910 deg
Mean anomaly:     133.0158 deg
Mean motion:   14.11314611 rev/day
Decay rate:       -1.5e-07 rev/day^2
Epoch rev:           16266
Checksum:              299

/EX
SB KEPS @ AMSAT  $ORB12096.M
Orbital Elements  12096.MISC

HR AMSAT ORBITAL ELEMENTS FOR MANNED AND MISCELLANEOUS SATELLITES
FROM WA5QGD FORT WORTH,TX April 5, 2012
Send SUBSCRIBE KEPS/UNSUBSCRIBE KEPS to majordomo@amsat.org only
BID: ORB12096.M
TO ALL RADIO AMATEURS BT

Satellite: HUBBLE
Catalog number: 20580
Epoch time:      12095.78878554
Element set:     975
Inclination:      028.4704 deg
RA of node:       263.8165 deg
Eccentricity:    0.0003588
Arg of perigee:   002.1668 deg
Mean anomaly:     357.8931 deg
Mean motion:   15.02341240 rev/day
Decay rate:      2.147e-05 rev/day^2
Epoch rev:             368
Checksum:              305

Satellite: ISS
Catalog number: 25544
Epoch time:      12096.99652534
Element set:     313
Inclination:      051.6394 deg
RA of node:       123.7868 deg
Eccentricity:    0.0008274
Arg of perigee:   250.1209 deg
Mean anomaly:     204.3274 deg
Mean motion:   15.58087733 rev/day
Decay rate:     1.6430e-04 rev/day^2
Epoch rev:           76676
Checksum:              313

Satellite: CO-58
Catalog number: 28895
Epoch time:      12095.64450110
Element set:    0141
Inclination:      097.9242 deg
RA of node:       325.1113 deg
Eccentricity:    0.0018233
Arg of perigee:   026.0735 deg
Mean anomaly:     334.1347 deg
Mean motion:   14.60546932 rev/day
Decay rate:       6.25e-06 rev/day^2
Epoch rev:           34292
Checksum:              286

Satellite: FALCON
Catalog number: 30776
Epoch time:      12095.93021944
Element set:    0333
Inclination:      035.4333 deg
RA of node:       004.1098 deg
Eccentricity:    0.0001241
Arg of perigee:   064.5562 deg
Mean anomaly:     295.5282 deg
Mean motion:   15.06998714 rev/day
Decay rate:      4.395e-05 rev/day^2
Epoch rev:           27919
Checksum:              300

Satellite: MAST
Catalog number: 31126
Epoch time:      12095.93940368
Element set:    0431
Inclination:      097.8770 deg
RA of node:       111.3197 deg
Eccentricity:    0.0093819
Arg of perigee:   339.7241 deg
Mean anomaly:     020.0253 deg
Mean motion:   14.54091903 rev/day
Decay rate:       7.29e-06 rev/day^2
Epoch rev:           26362
Checksum:              294

Satellite: CAPE1
Catalog number: 31130
Epoch time:      12095.50021847
Element set:    0436
Inclination:      097.8855 deg
RA of node:       107.3360 deg
Eccentricity:    0.0101256
Arg of perigee:   353.9049 deg
Mean anomaly:     006.0934 deg
Mean motion:   14.52846646 rev/day
Decay rate:       9.94e-06 rev/day^2
Epoch rev:           26307
Checksum:              293

Satellite: COMPASS
Catalog number: 32787
Epoch time:      12095.83689649
Element set:    0269
Inclination:      097.8076 deg
RA of node:       158.7849 deg
Eccentricity:    0.0014485
Arg of perigee:   303.1137 deg
Mean anomaly:     056.8675 deg
Mean motion:   14.83704717 rev/day
Decay rate:      2.142e-05 rev/day^2
Epoch rev:           21293
Checksum:              346

Satellite: AAUSAT2
Catalog number: 32788
Epoch time:      12095.61959079
Element set:    0260
Inclination:      097.8088 deg
RA of node:       158.9160 deg
Eccentricity:    0.0013403
Arg of perigee:   304.0015 deg
Mean anomaly:     055.9979 deg
Mean motion:   14.84003364 rev/day
Decay rate:      2.846e-05 rev/day^2
Epoch rev:           21292
Checksum:              316

Satellite: DO-64
Catalog number: 32789
Epoch time:      12095.73591654
Element set:    0275
Inclination:      097.8191 deg
RA of node:       160.7845 deg
Eccentricity:    0.0013576
Arg of perigee:   300.4545 deg
Mean anomaly:     059.5429 deg
Mean motion:   14.85281878 rev/day
Decay rate:      4.052e-05 rev/day^2
Epoch rev:           21297
Checksum:              346

Satellite: CO-66
Catalog number: 32791
Epoch time:      12095.66400094
Element set:    0263
Inclination:      097.8068 deg
RA of node:       158.4124 deg
Eccentricity:    0.0014856
Arg of perigee:   304.4004 deg
Mean anomaly:     055.5883 deg
Mean motion:   14.83173418 rev/day
Decay rate:      1.722e-05 rev/day^2
Epoch rev:           21284
Checksum:              305

